World > North America > United States > Texas

Fondren, Texas Regional Weather

Lat: 29.54N, Lon: 95.14W
Wx Zone: TXZ213Web Search

Our weather pages are very print friendly and they make great conversation starters.

Feedback


°F Click to change Fondren hourly weather to Imperial units.Click to change Fondren hourly weather to Metric units. °C
Fondren Weather Map
UTC Time: 4/11/2021, 15:04
Your Time:

Fondren, TX Regional Weather

Expires:202104111600;;388513
ASUS44 KSJT 111502
RWRSJT
WEST CENTRAL TEXAS REGIONAL WEATHER ROUNDUP
NATIONAL WEATHER SERVICE SAN ANGELO TX
1000 AM CDT SUN APR 11 2021

NOTE: "FAIR" INDICATES FEW OR NO CLOUDS BELOW 12,000 FEET WITH NO
SIGNIFICANT WEATHER AND/OR OBSTRUCTIONS TO VISIBILITY.


TXZ163-177-195>197-199-213-226-237-111600-
SOUTHEAST TEXAS
  
CITY           SKY/WX    TMP DP  RH WIND       PRES   REMARKS
COLLEGE STN    SUNNY     69  45  41 E9        29.80S                  
CALDWELL       NOT AVBL                                               
CROCKETT       NOT AVBL                                               
BRENHAM        SUNNY     68  49  50 SE6       29.80F                  
HUNTSVILLE     SUNNY     70  45  40 CALM      29.81R                  
CONROE         SUNNY     68  46  45 SE7       29.82R                  
HOUSTON BUSH   MOSUNNY   71  46  40 E9        29.80S                  
HOUSTON HOBBY  MOSUNNY   71  43  36 NE12      29.79F                  
PERLAND        SUNNY     72  49  44 E12       29.80F                  
WHARTON        SUNNY     69  41  36 E8        29.81R                  
$$


SKY/WX - Weather  TMP - Temperature  DP - Dew Point  RH - Relative Humidity
WIND - Wind Direction/Speed PRES - Barometric Pressure VSB - Visibility
WCI - Wind Chill Index E13G22 Wind - East Wind 13 mph/Gusts of 22 mph